T 2003 July 10.8481 TT MPC
q 1.063011 (2000.0) P Q
n 0.2030178 Peri. 188.7415 -0.2698716 +0.8781050
a 2.867125 Node 66.4101 -0.8553299 -0.0301599
e 0.629242 Incl. 25.5389 -0.4422444 -0.4775164
P 4.85
>From 157 observations 2003 May 23-Aug. 2.
Finding Charts
Magnitudes Graph
m1 = 17.5 + 5 log d + 10.0 log r
The orbital elements are published on M.P.E.C. 2003-P20.
The charts are made with StellaNavigator Ver.2.0 for Windows
(AstroArts / ASCII).
The magnitudes graphs are made with Comet for Windows.
Copyright(C) Seiichi Yoshida (comet@aerith.net). All rights reserved.